Weather in Schwyz

Switzerland     47°01′15″N   8°39′12″E
temp.,
°C
wind,
m/s
gust,
m/s
humid.,
%
clouds,
%
prec.,
mm/h
press.,
hPa
HPBL,
m
15 may, sat
sat1523:00+1s229199 0.6 101539
02:00+1sse218926 0.6 101420
05:00+1sse329111 0.0 101431
08:00+3sse1280100 0.0 1012158
11:00+8nw1259100 0.0 10091173
14:00+9wsw2351100 0.0 10071536
17:00+6w1282100 1.0 1009513
20:00+4w1196100 3.8 1009154
16 may, sun
sun1623:00+3wnw11100100 2.1 1011350
02:00+2s1199100 10.1 101389
05:00+1sse1196100 0.2 101229
08:00+5se128497 0.2 1009152
11:00+9w1266100 0.0 1006941
14:00+7w2291100 1.9 1007406
17:00+5nw2299100 5.6 1008403
20:00+5wsw2396100 10.1 1009299
17 may, mon
mon1723:00+4s2292100 0.9 101056
02:00+1s229062 0.9 101217
05:00+1s119489 0.7 101127
08:00+3w1195100 1.6 101291
11:00+5w128851 0.5 1012468
14:00+5nw3486100 2.8 1013778
17:00+7wnw257848 2.7 1012974
20:00+5nw118793 4.4 1014187
18 may, tue
tue1823:00+3ssw1195100 0.9 101643
02:00+3w12100100 3.7 1016319
05:00+2sw0110096 2.4 101899
08:00+2w129464 3.1 1019344
11:00+4wnw248588 1.0 1020796
14:00+5nw3585100 3.7 1020949
17:00+3nnw2399100 3.6 1022439
20:00+2sw1299100 7.8 1023148
19 may, wed
wed1923:00+1sse229399 0.3 102536
02:000s339392 0.5 102554
05:00−2sse328870 0.0 102528
08:00+2ssw238797 0.1 1023205
11:00+4wnw2398100 1.3 1022571
14:00+3nw3499100 5.1 1023609
17:00+3wnw239883 4.3 1024365
20:00+3w118991 5.6 102547